Вернуться в каталог

COSMOS 1275 DEB

АктивенPO
NORAD 42136·DEBRIS·🇷🇺 Russia

Запущен Jun 4, 1981 с Plesetsk Cosmodrome

Loading…

Ближайшие Пролёты (ближайшие 24 часа)

TLE

СвежийSource: Space-Track

Эпоха: Sep 13, 2026, 07:53 UTC

1 42136U 81053QY  26256.32896252  .00001326  00000-0  89531-3 0  9992
2 42136  83.0187 282.0755 0063313   0.4667 359.6550 13.98794463649841

Отслеживайте COSMOS 1275 DEB в реальном времени с AllMySat

Download on the App Store